Regional Weather Roundup
Issued by NWS Jackson, KY

Home | Current Version | Previous Version | Graphics & Text | Print | Product List | Glossary On
Versions: 1 2 3 4 5 6 7 8 9 10 11 12 13 14 15 16 17 18 19 20 21 22 23 24 25 26 27 28 29 30 31 32 33 34 35 36 37 38 39 40 41 42 43 44 45 46 47 48 49 50
693
ASUS43 KJKL 230310
RWRJKL

EAST KENTUCKY HOURLY WEATHER ROUNDUP
NATIONAL WEATHER SERVICE JACKSON KY
1100 PM EDT FRI JUL 22 2016

NOTE: "FAIR" INDICATES FEW OR NO CLOUDS BELOW 12,000 FEET WITH
NO SIGNIFICANT WEATHER AND/OR OBSTRUCTIONS TO VISIBILITY.

* THESE REPORTS ARE NOT UNDER NWS QUALITY CONTROL AND MAY NOT
  REPORT WEATHER SUCH AS PRECIPITATION AND FOG.

KYZ079-080-083-085-087-088-110-112-115-119-120-230400
...EASTERN KENTUCKY...

CITY           SKY/WX    TMP DP  RH WIND       PRES   REMARKS
JACKSON        MOCLDY    71  69  93 CALM      30.08R
LONDON         CLOUDY    75  69  81 W3        30.08R
SOMERSET*      LGT RAIN  70  70 100 CALM      30.08S
MONTICELLO*    LGT RAIN N/A N/A N/A VRB5      30.09R
WILLIAMSBURG*  CLOUDY    73  73 100 CALM      30.08S
MIDDLESBORO*   MOCLDY    78  74  85 CALM      30.07S
HARLAN APT*      N/A     77  72  83 CALM      30.08S
PIKE CO APT*     N/A     72  71  98 NE3       30.08R
MOREHEAD APT*  CLEAR     72  70  94 CALM      30.08R FOG
ASHLAND*       CLEAR     72  70  94 CALM      30.03R
$$

KYZ035-036-041-042-044-050-067-078-099-230400
...CENTRAL KENTUCKY...

CITY           SKY/WX    TMP DP  RH WIND       PRES   REMARKS
MT STERLING*   CLOUDY    72  72 100 W3        30.08R
FLEMING/MASON* CLEAR     71  70  98 CALM      30.07R
DANVILLE*      CLOUDY    72  70  94 SW3       30.08R
RICHMOND*      CLOUDY    73  70  88 CALM      30.06S
LEXINGTON      PTCLDY    75  70  84 S5        30.07R
FRANKFORT      PTCLDY    78  70  76 SW8       30.04R
LOUISVILLE     CLOUDY    79  70  74 S6        30.04R
LEBANON*         N/A     73  72  94 CALM      30.07R
GLASGOW*       CLOUDY    74  74 100 CALM      30.07R
BOWLING GREEN  CLOUDY    78  73  84 N3        30.07R
$$

KYZ091>093-OHZ055-061-077-WVZ005-015-034-035-042-230400
...SOUTHERN OHIO/WEST VIRGINIA...

CITY           SKY/WX    TMP DP  RH WIND       PRES   REMARKS
COVINGTON      PTCLDY    76  71  85 S6        30.05R
COLUMBUS       CLEAR     76  70  82 S3        30.02R
DAYTON         PTCLDY    78  72  81 SW8       30.03S
WILMINGTON     CLEAR     73  70  90 SW5       30.05R
HUNTINGTON       N/A     72  70  93 CALM      30.05R
CHARLESTON     MOCLDY    73  69  87 CALM      30.06R
PINEVILLE*       N/A     72  69  89 MISG      30.15R
BECKLEY          N/A     72  66  81 CALM      30.15R
BLUEFIELD        N/A     71  64  78 N3        30.17R
LOGAN CO APT*    N/A     75  70  83 CALM      30.08R
$$

VAZ002-007-008-TNZ017-027-036-066-071-230400
...SOUTHWEST VIRGINIA/EAST TENNESSEE...

CITY           SKY/WX    TMP DP  RH WIND       PRES   REMARKS
WISE*            N/A     75  59  57 CALM      30.16R
JONESVILLE*      N/A     77  73  88 CALM      30.09R
ABINGDON*        N/A     76  67  75 CALM      30.11R
BRISTOL        CLOUDY    78  69  73 CALM      30.07R
MORRISTOWN*    PTCLDY    79  72  78 SW6       30.05R
SEVIERVILLE*   CLEAR     79  68  69 CALM      30.04R
KNOXVILLE      MOCLDY    84  71  65 CALM      30.02R
OAK RIDGE      PTCLDY    84  71  65 CALM      30.05R
CROSSVILLE     PTCLDY    78  73  84 CALM      30.12R
NASHVILLE      CLOUDY    80  70  71 CALM      30.04R
$$

...KEY TO REMARKS...
VSB - VISIBILITY IN MILES
WCI - WIND CHILL INDEX
HX  - HEAT INDEX

$$




USA.gov is the U.S. government's official web portal to all federal, state and local government web resources and services.